Retour au catalogue

STARLINK-36994

ActifCommunicationsVLEO
NORAD 67997·PAYLOAD·🇺🇸 United States

Lancé Feb 27, 2026 depuis Vandenberg Space Force Base

Loading…

Prochains Passages (prochaines 24 heures)

TLE

FraisSource: CelesTrak SupGP

Époque: Sep 14, 2026, 22:58 UTC

1 67997C 26039M   26257.95743056  .00050559  00000+0  18311-2 0  2575
2 67997  43.0025  59.7052 0001385 273.8229  79.0894 15.27555308    11

Suivez STARLINK-36994 en temps réel avec AllMySat

Download on the App Store